[[{"header":{"parameterUnit":"m.s-1","parameterCategory":1,"la1":30.2991,"la2":30.254,"lo1":-89.0895,"lo2":-89.0444,"dy":0.0017,"dx":0.0017,"nx":28,"ny":28,"refTime":"2025-08-13T03:00:00:Z","depth":0,"parameterNumber":2,"parameterNumberName":"U-component_of_WINDS"},"data":[0,0,0,0,0,0,0,0,0,0,0,0,0,0,0,0,0,0,0,0,0,0,0,0,0,0,0,0,0,0,0,0,0,0,0,0,0,0,0,0,0,0,0,0,0,0,0,0,0,0,0,0,0,0,0,0,0,0,1.5087,1.5087,0,1.5056,1.5055,1.5055,1.4973,1.4972,1.497,1.4968,1.4943,1.4944,1.4945,0,0,0,0,0,0,0,0,0,0,0,0,0,1.5081,1.5082,1.5087,1.5087,1.5086,1.5056,1.5055,1.5055,1.4974,1.4972,1.4969,1.4967,1.4943,1.4944,1.4945,0,0,0,0,0,0,0,0,0,0,0,0,0,1.5071,1.5082,1.5087,1.5042,1.5037,1.5056,1.5055,1.5055,1.4974,1.4971,1.4969,1.4966,1.4943,1.4944,1.4945,1.5008,0,0,1.495,1.4951,0,0,0,0,0,0,0,0,1.5071,1.5071,1.5049,1.5045,1.504,1.5016,1.5044,1.5039,1.4975,1.4998,1.4968,1.4965,1.497,1.4969,1.4969,1.5006,1.5005,1.495,1.4951,1.4952,1.4952,0,0,0,0,0,0,0,1.5072,1.5072,1.5075,1.5049,1.5043,1.5025,1.502,1.5043,1.5,1.4996,1.499,1.4987,1.4967,1.4968,1.4968,1.5005,1.495,1.4951,1.4952,1.4953,1.5091,1.5094,0,0,0,0,0,0,1.5079,1.5073,1.5076,1.5074,1.5049,1.5027,1.5022,1.5026,1.4999,1.4992,1.4989,1.4983,1.4967,1.4966,1.4967,1.5037,1.4952,1.4953,1.4954,1.5088,1.5091,1.5094,0,0,0,0,0,0,1.5079,1.508,1.5077,1.5072,1.507,1.503,1.5035,1.5027,1.5028,1.4994,1.4986,1.4998,1.4965,1.4965,1.4997,1.5035,1.4954,1.4955,1.5085,1.5089,1.5093,1.5179,0,0,0,0,0,0,1.5079,1.508,1.5102,1.5073,1.507,1.5107,1.5038,1.5028,1.503,1.5022,1.5,1.4994,1.4963,1.4996,1.4999,1.5036,1.4956,1.5081,1.5087,1.5092,1.5173,1.5186,1.5197,0,0,0,0,0,1.5079,1.5129,1.5104,1.5105,1.5097,1.5109,1.5108,1.5069,1.5033,1.5056,1.5034,1.4995,1.503,1.5,1.5003,1.5041,1.5079,1.5085,1.5091,1.5167,1.5183,1.5196,0,0,0,0,0,0,1.5167,1.5125,1.5096,1.5138,1.5127,1.5095,1.5122,1.5087,1.5089,1.5081,1.5035,1.5031,1.507,1.5058,1.5025,1.5099,1.5048,1.5055,1.5105,1.512,1.5132,1.5134,1.4957,0,0,0,0,0,1.5191,1.5202,1.5165,1.5206,1.5202,1.5163,1.5167,1.5138,1.5126,1.5122,1.5102,1.5094,1.5103,1.5111,1.5118,1.517,1.5165,1.5198,1.521,1.522,1.5227,1.5254,1.5268,1.5115,1.5115,1.5115,0,0,1.5241,1.5219,1.523,1.5223,1.5212,1.5226,1.516,1.5179,1.519,1.5125,1.5154,1.514,1.5128,1.517,1.5188,1.5162,1.5268,1.5228,1.5236,1.5238,1.5262,1.5276,1.5289,1.5119,1.5118,1.5118,0,0,1.534,1.5325,1.5356,1.5345,1.5327,1.5301,1.5309,1.5282,1.5269,1.5296,1.5248,1.5261,1.5278,1.5271,1.527,1.5365,1.5329,1.5368,1.5432,1.5458,1.547,1.5481,1.5515,1.5527,1.5375,1.5375,1.5376,0,1.5406,1.5423,1.5378,1.5398,1.5397,1.5337,1.5369,1.5362,1.5348,1.535,1.532,1.5338,1.5326,1.5366,1.5389,1.539,1.5398,1.5371,1.5472,1.5482,1.5491,1.5523,1.5536,1.538,1.538,1.5379,1.5379,0,1.5505,1.5518,1.5546,1.5531,1.5533,1.556,1.552,1.5528,1.5498,1.5475,1.5504,1.5487,1.5488,1.5495,1.5468,1.5532,1.5516,1.548,1.5428,1.5511,1.554,1.5552,1.5387,1.5386,1.5384,1.5383,0,0,1.566,1.5618,1.5629,1.5621,1.5597,1.5607,1.5631,1.563,1.5638,1.5631,1.565,1.5665,1.5631,1.563,1.56,1.5623,1.5699,1.5584,1.5583,1.5606,1.5769,1.5796,1.5811,1.5675,1.5677,1.5679,1.577,0,1.5753,1.579,1.5749,1.5795,1.5807,1.5749,1.577,1.5758,1.5738,1.5746,1.5724,1.5735,1.5689,1.5687,1.5708,1.5686,1.5731,1.5679,1.5695,1.5696,1.57,1.5826,1.5856,1.5942,1.5781,1.5783,1.5784,0,1.5867,1.5862,1.5909,1.5879,1.5883,1.5903,1.5898,1.5906,1.5892,1.5875,1.5873,1.5836,1.5859,1.5808,1.584,1.5805,1.5809,1.5799,1.5801,1.5802,1.5745,1.5831,1.5969,1.5982,1.5802,1.58,1.5799,0,1.5975,1.598,1.6008,1.6004,1.5971,1.5986,1.5974,1.5956,1.5958,1.5954,1.5955,1.5956,1.5956,1.5958,1.5923,1.5889,1.596,1.5905,1.5947,1.5949,1.5966,1.5965,1.6107,1.5968,1.5968,1.5967,1.5967,0,1.6083,1.6115,1.6056,1.6074,1.6107,1.606,1.6095,1.6077,1.6061,1.6076,1.6026,1.6041,1.5994,1.6004,1.5977,1.6007,1.6008,1.5996,1.5989,1.6001,1.6002,1.6003,1.5996,1.5971,1.597,1.5969,1.5969,0,1.621,1.6173,1.62,1.6165,1.6158,1.6184,1.6155,1.6171,1.6146,1.6164,1.6166,1.6128,1.6137,1.6102,1.6106,1.6088,1.6133,1.6115,1.6137,1.6132,1.6176,1.6172,1.6324,1.6341,1.6191,1.6192,1.6193,0,1.6282,1.6304,1.6272,1.6276,1.6266,1.6274,1.6275,1.623,1.6233,1.6217,1.6235,1.6239,1.6241,1.6258,1.6232,1.6235,1.6217,1.627,1.6218,1.6229,1.6218,1.6217,1.6219,1.6282,1.6283,1.6285,1.6286,0,1.6414,1.6394,1.6395,1.6391,1.6392,1.6387,1.6379,1.6386,1.6337,1.6344,1.6351,1.6351,1.6354,1.6359,1.6356,1.6345,1.6308,1.6302,1.6312,1.6325,1.6337,1.6331,1.6167,1.63,1.6298,1.6297,1.6296,1.6296,1.6515,1.6532,1.6511,1.6515,1.6503,1.6496,1.6508,1.6484,1.6489,1.6486,1.6459,1.6472,1.6456,1.6448,1.644,1.645,1.6426,1.644,1.6444,1.6448,1.6455,1.6334,1.6449,1.6449,1.6449,1.6448,1.6448,0,1.6644,1.6627,1.6631,1.6619,1.6623,1.6585,1.6573,1.6579,1.659,1.6577,1.6578,1.6587,1.6592,1.6565,1.6566,1.658,1.6563,1.6582,1.658,1.6578,1.6477,1.6469,1.6595,1.6595,1.6595,1.6595,1.6595,1.6595,1.6712,1.6737,1.6715,1.6734,1.6718,1.6728,1.6724,1.6718,1.6707,1.6718,1.6721,1.6703,1.6685,1.6684,1.6687,1.6679,1.6682,1.6707,1.6694,1.66,1.6586,1.6572,1.6563,1.6708,1.6708,1.6794,1.6794,1.6795]},{"header":{"parameterUnit":"m.s-1","parameterCategory":1,"la1":30.2991,"la2":30.254,"lo1":-89.0895,"lo2":-89.0444,"dy":0.0017,"dx":0.0017,"nx":28,"ny":28,"refTime":"2025-08-13T03:00:00:Z","depth":0,"parameterNumber":3,"parameterNumberName":"V-component_of_WINDS"},"data":[0,0,0,0,0,0,0,0,0,0,0,0,0,0,0,0,0,0,0,0,0,0,0,0,0,0,0,0,0,0,0,0,0,0,0,0,0,0,0,0,0,0,0,0,0,0,0,0,0,0,0,0,0,0,0,0,0,0,2.1892,2.1894,0,2.2008,2.201,2.2011,2.2002,2.2,2.1998,2.1997,2.2109,2.2113,2.2118,0,0,0,0,0,0,0,0,0,0,0,0,0,2.1655,2.1659,2.1892,2.1894,2.1895,2.2008,2.201,2.2011,2.2002,2.2,2.1998,2.1996,2.2107,2.2112,2.2118,0,0,0,0,0,0,0,0,0,0,0,0,0,2.1763,2.1661,2.1892,2.1905,2.1907,2.2008,2.201,2.2012,2.2003,2.2,2.1997,2.1995,2.2105,2.2112,2.2119,2.2213,0,0,2.214,2.2143,0,0,0,0,0,0,0,0,2.1757,2.1771,2.1901,2.1904,2.1907,2.1988,2.1967,2.2079,2.2003,2.1966,2.1997,2.1994,2.207,2.208,2.2107,2.2218,2.2223,2.214,2.2144,2.2147,2.2149,0,0,0,0,0,0,0,2.1749,2.1766,2.1938,2.1903,2.1906,2.1901,2.1914,2.1988,2.2031,2.1969,2.1969,2.1983,2.2071,2.21,2.2109,2.2224,2.214,2.2146,2.215,2.2153,2.2414,2.2416,0,0,0,0,0,0,2.174,2.176,2.1934,2.1941,2.1824,2.1908,2.1922,2.1964,2.203,2.2038,2.1985,2.1982,2.209,2.2101,2.2113,2.2225,2.2147,2.2154,2.2158,2.2411,2.2414,2.2417,0,0,0,0,0,0,2.1735,2.1756,2.193,2.1851,2.1873,2.1915,2.1963,2.1968,2.1997,2.2042,2.2049,2.2008,2.2088,2.2104,2.2188,2.2229,2.2157,2.2163,2.2408,2.2412,2.2416,2.245,0,0,0,0,0,0,2.1728,2.1754,2.1792,2.1852,2.1877,2.2005,2.1965,2.1972,2.201,2.2007,2.2065,2.2072,2.2087,2.2177,2.2194,2.2237,2.2168,2.2404,2.241,2.2414,2.2446,2.2455,2.2463,0,0,0,0,0,2.172,2.1797,2.1794,2.1815,2.1926,2.2007,2.2021,2.2039,2.2014,2.2051,2.2079,2.207,2.2222,2.2186,2.2205,2.225,2.2401,2.2408,2.2414,2.2442,2.2453,2.2463,0,0,0,0,0,0,2.1739,2.1805,2.1803,2.1902,2.1949,2.2006,2.2053,2.2051,2.2105,2.21,2.2118,2.2131,2.2214,2.2241,2.22,2.2342,2.2308,2.2318,2.2322,2.2334,2.2342,2.2333,2.2174,0,0,0,0,0,2.1755,2.1818,2.1871,2.1953,2.1977,2.2011,2.2047,2.2057,2.2105,2.2125,2.2159,2.2205,2.2262,2.23,2.2355,2.245,2.246,2.249,2.2499,2.2506,2.2514,2.2562,2.2575,2.2438,2.2438,2.2438,0,0,2.1788,2.1832,2.187,2.1958,2.1996,2.2057,2.2028,2.2095,2.214,2.2134,2.2215,2.2242,2.2294,2.2382,2.2423,2.2407,2.2554,2.2514,2.2519,2.2523,2.257,2.2583,2.2594,2.2442,2.2442,2.2441,0,0,2.188,2.1921,2.1992,2.2031,2.2089,2.2111,2.2127,2.2184,2.2202,2.2284,2.228,2.2332,2.2432,2.2468,2.2499,2.2602,2.2595,2.262,2.2665,2.2712,2.2723,2.2732,2.2766,2.2778,2.2628,2.2628,2.2628,0,2.1913,2.2008,2.2028,2.2096,2.2133,2.2132,2.2203,2.2238,2.231,2.2334,2.2316,2.2439,2.2474,2.2569,2.2594,2.2621,2.2638,2.2612,2.272,2.273,2.2739,2.2771,2.2784,2.263,2.263,2.263,2.263,0,2.2044,2.211,2.2161,2.2232,2.2275,2.2343,2.2371,2.2411,2.2416,2.2439,2.252,2.2562,2.2625,2.2648,2.2654,2.2744,2.2732,2.2717,2.2682,2.2754,2.2784,2.2797,2.2634,2.2633,2.2632,2.2632,0,0,2.2151,2.2233,2.225,2.2281,2.2344,2.2394,2.2461,2.2524,2.2557,2.2606,2.266,2.2743,2.2729,2.2764,2.2774,2.2815,2.289,2.2794,2.2796,2.2808,2.2987,2.2996,2.3011,2.2886,2.2888,2.289,2.2982,0,2.2247,2.2369,2.2387,2.2493,2.2551,2.2551,2.2608,2.2651,2.2674,2.2724,2.2748,2.2806,2.2784,2.2805,2.2846,2.2872,2.2925,2.2866,2.2933,2.2935,2.2918,2.3027,2.3038,2.3123,2.2994,2.2996,2.2998,0,2.2376,2.243,2.2541,2.2594,2.2619,2.2671,2.2728,2.2778,2.2825,2.2838,2.2877,2.2881,2.2946,2.291,2.2998,2.2957,2.2986,2.3002,2.3006,2.3011,2.2969,2.3033,2.315,2.3162,2.3017,2.3016,2.3014,0,2.2439,2.2539,2.2618,2.2645,2.2709,2.2745,2.2773,2.2818,2.2854,2.2903,2.2926,2.2982,2.3011,2.3053,2.307,2.3043,2.3156,2.3122,2.3166,2.3165,2.3189,2.3187,2.331,2.3211,2.3211,2.321,2.321,0,2.2543,2.261,2.2647,2.2695,2.2769,2.2789,2.2861,2.2887,2.2927,2.2978,2.298,2.3027,2.3048,2.3097,2.3111,2.318,2.3194,2.3204,2.3206,2.3203,2.3201,2.322,2.3214,2.3214,2.3213,2.3212,2.3212,0,2.2625,2.2654,2.2739,2.2793,2.2808,2.2859,2.2904,2.2949,2.297,2.3034,2.305,2.3083,2.3141,2.3163,2.3233,2.3242,2.3321,2.332,2.3306,2.3306,2.3348,2.3342,2.3486,2.3504,2.3395,2.3396,2.3397,0,2.2689,2.2741,2.28,2.2835,2.2865,2.2922,2.2958,2.2978,2.3016,2.3072,2.3109,2.3168,2.3215,2.3307,2.3335,2.3388,2.3386,2.3433,2.3394,2.3388,2.3384,2.3379,2.3383,2.3439,2.344,2.3441,2.3442,0,2.2797,2.2808,2.2862,2.2921,2.2964,2.3011,2.3056,2.3084,2.311,2.3151,2.3211,2.3248,2.332,2.3376,2.343,2.3455,2.3452,2.3454,2.3467,2.3462,2.3451,2.3455,2.3323,2.345,2.345,2.3449,2.3448,2.3448,2.287,2.2915,2.2964,2.3023,2.3059,2.31,2.3145,2.3172,2.3223,2.3285,2.3293,2.3356,2.3399,2.3471,2.3499,2.3546,2.3533,2.3552,2.3557,2.356,2.3562,2.3445,2.3556,2.3556,2.3556,2.3556,2.3556,0,2.2976,2.3007,2.3062,2.3125,2.3171,2.3166,2.3215,2.3252,2.3309,2.335,2.3397,2.3464,2.3518,2.3551,2.3604,2.3636,2.3635,2.3649,2.3645,2.3651,2.3572,2.3555,2.3648,2.3648,2.3648,2.3648,2.3648,2.3648,2.3037,2.3112,2.3128,2.322,2.325,2.3314,2.3341,2.3378,2.3411,2.3487,2.3532,2.3554,2.359,2.3646,2.3694,2.3702,2.372,2.3735,2.3741,2.3666,2.3657,2.3647,2.3631,2.3739,2.3739,2.3816,2.3816,2.3817]}]]